Flag for Germany Weather past 2 weeks in Mühlacker, Baden-Württemberg, Germany

Now
66 °F

Broken clouds.


Feels Like: 66 °F
Forecast: 52 / 64 °F
Wind: 5 mph from North

Location: Stuttgart-Echterdingen

Current Time: May 29, 2015 at 1:13:03 PM

Latest Report: May 29, 2015 at 12:20 PM


Visibility: N/A

Pressure: 29.92 "Hg

Humidity: 60%

Dew point: 52 °F

Location of MühlackerLocation

Historic Weather in Mühlacker — Graph

°F

Mühlacker temperature yesterday

Maximum temperature yesterday: 70 °F (at 3:20 PM)
Minimum temperature yesterday: 39 °F (at 4:20 AM)
Average temperature yesterday: 56 °F

Past Weeks' High & Low Weather Summary

 TemperatureHumidityPressure
High73 °F (May 18, 5:20 PM)100% (May 15, 4:20 AM)30.30 "Hg (May 15, 4:20 AM)
Low37 °F (May 22, 5:50 AM)25% (May 18, 6:20 PM)29.74 "Hg (May 18, 6:20 PM)
Average56 °F70%30.06 "Hg
* Reported May 14 11:20 AM — May 29 11:50 AM, Mühlacker, Weather by CustomWeather, © 2015

Note: Actual official high and low records may vary slightly from our data, if they occured in-between our weather recording intervals... More about our weather records

Advertising

Mühlacker weather history for previous 24 hours

 ConditionsComfort  
Time TempWeatherWind HumidityBarometerVisibility
11:50 AM
Fri, May 29
64 °FSprinkles. Broken clouds.3 mph68%29.92 "HgN/A
11:20 AM63 °FPartly sunny.5 mph73%29.92 "HgN/A
10:50 AM63 °FPartly sunny.2 mph68%29.95 "HgN/A
10:20 AM61 °FPartly sunny.3 mph72%29.95 "HgN/A
9:50 AM63 °FPartly sunny.3 mph68%29.95 "HgN/A
9:20 AM59 °FScattered clouds.2 mph72%29.95 "HgN/A
8:50 AM59 °FScattered clouds.5 mph77%29.95 "HgN/A
8:20 AM57 °FScattered clouds.3 mph82%29.95 "HgN/A
7:50 AM55 °FScattered clouds.3 mph88%29.95 "HgN/A
7:20 AM54 °FPartly sunny.2 mph94%29.95 "HgN/A
6:50 AM54 °FSprinkles. Partly sunny.1 mph94%29.95 "HgN/A
6:20 AM52 °FPassing clouds.3 mph94%29.95 "HgN/A
5:50 AM54 °FRain showers. Partly cloudy.3 mph94%29.95 "HgN/A
5:20 AM54 °FScattered showers. Partly cloudy.3 mph88%29.95 "HgN/A
4:50 AM55 °FPartly cloudy.3 mph82%29.95 "HgN/A
4:20 AM55 °FPassing clouds.5 mph77%29.98 "HgN/A
3:50 AM57 °FPassing clouds.2 mph72%29.98 "HgN/A
3:20 AM57 °FPartly cloudy.3 mph72%29.98 "HgN/A
2:50 AM55 °FPartly cloudy.7 mph77%29.98 "HgN/A
2:20 AM55 °FClear.7 mph77%29.98 "Hg10 mi
1:50 AM55 °FClear.6 mph77%29.98 "Hg10 mi
1:20 AM59 °FClear.5 mph68%29.98 "Hg10 mi
12:50 AM59 °FClear.7 mph63%29.98 "Hg10 mi
12:20 AM57 °FClear.6 mph67%29.98 "Hg10 mi
11:50 PM
Thu, May 28
57 °FPassing clouds.6 mph67%29.98 "HgN/A
11:20 PM57 °FClear.3 mph67%29.98 "Hg10 mi
10:50 PM61 °FClear.3 mph59%29.98 "Hg10 mi
10:20 PM61 °FClear.6 mph59%29.98 "Hg10 mi
9:50 PM61 °FSunny.7 mph59%29.98 "Hg10 mi
9:20 PM63 °FSunny.5 mph56%29.98 "Hg10 mi
8:50 PM64 °FPassing clouds.3 mph49%29.98 "HgN/A
8:20 PM66 °FPassing clouds.5 mph43%29.98 "HgN/A
7:50 PM66 °FPassing clouds.6 mph43%29.98 "HgN/A
7:20 PM66 °FPassing clouds.8 mph43%29.98 "HgN/A
6:50 PM68 °FPassing clouds.12 mph38%29.98 "HgN/A
6:20 PM68 °FPassing clouds.6 mph43%29.98 "HgN/A
5:50 PM68 °FPassing clouds.7 mph43%29.98 "HgN/A
5:20 PM70 °FPassing clouds.14 mph38%29.98 "HgN/A
4:50 PM70 °FPassing clouds.9 mph35%29.98 "HgN/A
4:20 PM70 °FPassing clouds.7 mph33%29.98 "HgN/A
3:50 PM70 °FSunny.9 mph38%29.98 "Hg10 mi
3:20 PM70 °FSunny.6 mph35%30.01 "Hg10 mi
2:50 PM68 °FPassing clouds.7 mph38%30.01 "HgN/A
2:20 PM66 °FPassing clouds.9 mph43%30.01 "HgN/A
1:50 PM66 °FPassing clouds.8 mph43%30.04 "HgN/A
1:20 PM64 °FMild.8 mph49%30.04 "HgN/A
Weather by CustomWeather, © 2015

See weather overviewHow to use our weather pages